| time (UTC) | temp F | wind direction | speed knots | gust knots | rain 1hr in | rain 24hr in | rain mn in | humidity % | barometer mb |
| 20260503200438 | 74 | 174 | 6.1 | 9.6 | 0.00 | 0.00 | 0.00 | 44 | 1014.7 |
| 20260503195934 | 73 | 220 | 6.1 | 9.6 | 0.00 | 0.00 | 0.00 | 43 | 1014.7 |
| 20260503195432 | 73 | 189 | 4.3 | 11.3 | 0.00 | 0.00 | 0.00 | 43 | 1014.8 |
| 20260503194928 | 72 | 134 | 6.1 | 8.7 | 0.00 | 0.00 | 0.00 | 44 | 1015.1 |
| 20260503194425 | 73 | 157 | 7.0 | 10.4 | 0.00 | 0.00 | 0.00 | 44 | 1015.1 |
| 20260503193920 | 73 | 162 | 9.6 | 9.6 | 0.00 | 0.00 | 0.00 | 44 | 1015.0 |
| 20260503193416 | 72 | 185 | 7.0 | 10.4 | 0.00 | 0.00 | 0.00 | 44 | 1015.3 |
| 20260503192912 | 72 | 180 | 8.7 | 10.4 | 0.00 | 0.00 | 0.00 | 45 | 1015.3 |
| 20260503192408 | 73 | 176 | 11.3 | 11.3 | 0.00 | 0.00 | 0.00 | 45 | 1015.6 |
| 20260503191904 | 72 | 231 | 4.3 | 10.4 | 0.00 | 0.00 | 0.00 | 46 | 1015.4 |
| 20260503191402 | 71 | 153 | 7.0 | 11.3 | 0.00 | 0.00 | 0.00 | 46 | 1015.6 |
| 20260503190858 | 72 | 182 | 2.6 | 8.7 | 0.00 | 0.00 | 0.00 | 46 | 1015.7 |
| 20260503190355 | 71 | 180 | 3.5 | 13.0 | 0.00 | 0.00 | 0.00 | 46 | 1015.7 |
| 20260503185852 | 71 | 156 | 6.1 | 12.2 | 0.00 | 0.00 | 0.00 | 45 | 1015.9 |
| 20260503185348 | 71 | 181 | 7.0 | 9.6 | 0.00 | 0.00 | 0.00 | 46 | 1016.0 |
| 20260503184848 | 72 | 168 | 8.7 | 12.2 | 0.00 | 0.00 | 0.00 | 46 | 1016.2 |
| 20260503184344 | 71 | 184 | 6.1 | 13.0 | 0.00 | 0.00 | 0.00 | 46 | 1016.3 |
| 20260503183840 | 71 | 227 | 5.2 | 11.3 | 0.00 | 0.00 | 0.00 | 46 | 1016.3 |
| 20260503183338 | 71 | 165 | 3.5 | 9.6 | 0.00 | 0.00 | 0.00 | 45 | 1016.6 |
| 20260503182835 | 71 | 180 | 3.5 | 11.3 | 0.00 | 0.00 | 0.00 | 45 | 1016.6 |
| 20260503182334 | 71 | 178 | 6.1 | 9.6 | 0.00 | 0.00 | 0.00 | 46 | 1016.8 |
| 20260503181831 | 70 | 143 | 6.1 | 11.3 | 0.00 | 0.00 | 0.00 | 46 | 1017.0 |
| 20260503181328 | 70 | 118 | 2.6 | 10.4 | 0.00 | 0.00 | 0.00 | 45 | 1016.9 |
| 20260503180824 | 71 | 168 | 3.5 | 12.2 | 0.00 | 0.00 | 0.00 | 46 | 1017.0 |
| 20260503180322 | 71 | 270 | 2.6 | 8.7 | 0.00 | 0.00 | 0.00 | 46 | 1017.0 |
| 20260503175818 | 69 | 212 | 2.6 | 9.6 | 0.00 | 0.00 | 0.00 | 46 | 1017.1 |
| 20260503175317 | 69 | 173 | 4.3 | 9.6 | 0.00 | 0.00 | 0.00 | 46 | 1017.1 |
| 20260503174812 | 70 | 178 | 3.5 | 11.3 | 0.00 | 0.00 | 0.00 | 47 | 1017.3 |
| 20260503174311 | 69 | 180 | 8.7 | 11.3 | 0.00 | 0.00 | 0.00 | 47 | 1017.6 |
| 20260503173806 | 69 | 200 | 5.2 | 9.6 | 0.00 | 0.00 | 0.00 | 48 | 1017.6 |
| 20260503173302 | 68 | 165 | 5.2 | 11.3 | 0.00 | 0.00 | 0.00 | 47 | 1017.6 |
| 20260503172759 | 69 | 195 | 4.3 | 11.3 | 0.00 | 0.00 | 0.00 | 48 | 1017.7 |
| 20260503172256 | 70 | 154 | 8.7 | 9.6 | 0.00 | 0.00 | 0.00 | 47 | 1018.0 |
| 20260503171752 | 69 | 175 | 5.2 | 9.6 | 0.00 | 0.00 | 0.00 | 46 | 1018.2 |
| 20260503171249 | 69 | 175 | 2.6 | 9.6 | 0.00 | 0.00 | 0.00 | 47 | 1018.3 |
| 20260503170746 | 68 | 218 | 3.5 | 9.6 | 0.00 | 0.00 | 0.00 | 48 | 1018.2 |
| 20260503170243 | 69 | 198 | 7.8 | 9.6 | 0.00 | 0.00 | 0.00 | 49 | 1018.5 |
| 20260503160205 | 64 | 192 | 5.2 | 9.6 | 0.00 | 0.00 | 0.00 | 60 | 1018.8 |
| 20260503150635 | 60 | 156 | 0.0 | 3.5 | 0.00 | 0.00 | 0.00 | 71 | 1019.5 |
| 20260503150131 | 59 | 114 | 1.7 | 3.5 | 0.00 | 0.00 | 0.00 | 73 | 1019.4 |
| 20260503131025 | 49 | 180 | 0.0 | 1.7 | 0.00 | 0.00 | 0.00 | 92 | 1019.6 |
| 20260503130522 | 48 | 168 | 0.0 | 2.6 | 0.00 | 0.00 | 0.00 | 92 | 1019.5 |
| 20260503110407 | 48 | 180 | 0.0 | 0.0 | 0.00 | 0.00 | 0.00 | 92 | 1018.8 |
| 20260503090258 | 49 | 3 | 0.0 | 2.6 | 0.00 | 0.00 | 0.00 | 91 | 1019.3 |
| 20260503081225 | 51 | 172 | 0.0 | 0.0 | 0.00 | 0.00 | 0.00 | 90 | 1019.4 |
| 20260503080721 | 51 | 157 | 0.0 | 1.7 | 0.00 | 0.00 | 0.00 | 90 | 1019.3 |
| 20260503080218 | 51 | 120 | 0.0 | 0.0 | 0.00 | 0.00 | 0.00 | 90 | 1019.4 |
| 20260503072655 | 52 | 151 | 0.0 | 1.7 | 0.00 | 0.00 | 0.00 | 89 | 1019.6 |
| 20260503072151 | 52 | 254 | 0.0 | 0.9 | 0.00 | 0.00 | 0.00 | 89 | 1019.8 |
| 20260503071648 | 52 | 270 | 0.0 | 1.7 | 0.00 | 0.00 | 0.00 | 89 | 1019.6 |
| 20260503071145 | 52 | 286 | 0.0 | 0.9 | 0.00 | 0.00 | 0.00 | 89 | 1019.5 |
| 20260503070642 | 51 | 90 | 0.0 | 0.9 | 0.00 | 0.00 | 0.00 | 89 | 1019.6 |
| 20260503070140 | 51 | 114 | 0.0 | 0.9 | 0.00 | 0.00 | 0.00 | 89 | 1019.4 |
| 20260503060104 | 53 | 14 | 0.0 | 0.0 | 0.00 | 0.00 | 0.00 | 84 | 1019.5 |
| 20260503055055 | 54 | 0 | 0.0 | 1.7 | 0.00 | 0.00 | 0.00 | 82 | 1019.4 |
| 20260503054551 | 54 | 23 | 0.0 | 0.9 | 0.00 | 0.00 | 0.00 | 81 | 1019.7 |
| 20260503054049 | 55 | 20 | 0.0 | 1.7 | 0.00 | 0.00 | 0.00 | 80 | 1019.4 |
| 20260503053547 | 55 | 74 | 0.0 | 0.9 | 0.00 | 0.00 | 0.00 | 79 | 1019.3 |
| 20260503053044 | 55 | 294 | 0.0 | 0.9 | 0.00 | 0.00 | 0.00 | 80 | 1019.3 |
| 20260503052541 | 55 | 254 | 0.0 | 0.0 | 0.00 | 0.00 | 0.00 | 79 | 1019.4 |
| 20260503052037 | 56 | 254 | 0.0 | 0.0 | 0.00 | 0.00 | 0.00 | 79 | 1019.3 |
| 20260503051533 | 56 | 254 | 0.0 | 0.9 | 0.00 | 0.00 | 0.00 | 80 | 1019.3 |
| 20260503051031 | 56 | 270 | 0.0 | 0.0 | 0.00 | 0.00 | 0.00 | 80 | 1019.4 |
| 20260503050526 | 56 | 254 | 0.0 | 0.0 | 0.00 | 0.00 | 0.00 | 80 | 1019.4 |
| 20260503050024 | 56 | 254 | 0.0 | 0.0 | 0.00 | 0.00 | 0.00 | 79 | 1019.5 |
| 20260503045521 | 56 | 254 | 0.0 | 0.0 | 0.00 | 0.00 | 0.00 | 79 | 1019.4 |
| 20260503045018 | 56 | 254 | 0.0 | 0.9 | 0.00 | 0.00 | 0.00 | 79 | 1019.4 |
| 20260503044515 | 56 | 0 | 0.0 | 0.0 | 0.00 | 0.00 | 0.00 | 78 | 1019.5 |
| 20260503044013 | 56 | 7 | 0.0 | 1.7 | 0.00 | 0.00 | 0.00 | 77 | 1019.3 |
| 20260503043508 | 56 | 243 | 0.0 | 0.0 | 0.00 | 0.00 | 0.00 | 76 | 1019.4 |
| 20260503043005 | 56 | 243 | 0.0 | 0.0 | 0.00 | 0.00 | 0.00 | 75 | 1019.1 |
| 20260503042502 | 57 | 243 | 0.0 | 0.0 | 0.00 | 0.00 | 0.00 | 74 | 1019.2 |
| 20260503041958 | 57 | 270 | 0.0 | 0.0 | 0.00 | 0.00 | 0.00 | 73 | 1019.3 |
| 20260503041455 | 57 | 220 | 0.0 | 1.7 | 0.00 | 0.00 | 0.00 | 73 | 1019.3 |
| 20260503040953 | 57 | 151 | 0.0 | 0.0 | 0.00 | 0.00 | 0.00 | 73 | 1019.2 |
| 20260503040450 | 58 | 151 | 0.0 | 0.9 | 0.00 | 0.00 | 0.00 | 72 | 1019.1 |
| 20260503035947 | 58 | 240 | 0.0 | 0.9 | 0.00 | 0.00 | 0.00 | 70 | 1019.4 |
| 20260503035444 | 58 | 156 | 1.7 | 2.6 | 0.00 | 0.00 | 0.00 | 70 | 1019.3 |
| 20260503034942 | 58 | 144 | 1.7 | 1.7 | 0.00 | 0.00 | 0.00 | 70 | 1019.0 |
| 20260503034439 | 58 | 168 | 0.9 | 2.6 | 0.00 | 0.00 | 0.00 | 70 | 1019.2 |
| 20260503033935 | 58 | 161 | 2.6 | 2.6 | 0.00 | 0.00 | 0.00 | 70 | 1019.1 |
| 20260503033433 | 59 | 131 | 0.0 | 2.6 | 0.00 | 0.00 | 0.00 | 69 | 1019.0 |
| 20260503032931 | 59 | 103 | 0.0 | 1.7 | 0.00 | 0.00 | 0.00 | 66 | 1018.9 |
| 20260503032429 | 59 | 111 | 0.0 | 1.7 | 0.00 | 0.00 | 0.00 | 64 | 1019.1 |
| 20260503031926 | 59 | 154 | 0.9 | 1.7 | 0.00 | 0.00 | 0.00 | 64 | 1018.8 |
| 20260503031424 | 59 | 158 | 1.7 | 2.6 | 0.00 | 0.00 | 0.00 | 64 | 1019.0 |
| 20260503030920 | 59 | 180 | 0.0 | 2.6 | 0.00 | 0.00 | 0.00 | 64 | 1018.8 |
| 20260503030417 | 59 | 221 | 1.7 | 1.7 | 0.00 | 0.00 | 0.00 | 64 | 1018.5 |
| 20260503025914 | 60 | 172 | 0.0 | 1.7 | 0.00 | 0.00 | 0.00 | 62 | 1018.8 |
| 20260503025411 | 60 | 154 | 0.0 | 0.9 | 0.00 | 0.00 | 0.00 | 61 | 1018.5 |
| 20260503024908 | 60 | 166 | 0.0 | 2.6 | 0.00 | 0.00 | 0.00 | 60 | 1018.6 |
| 20260503024404 | 60 | 188 | 0.0 | 2.6 | 0.00 | 0.00 | 0.00 | 60 | 1018.9 |
| 20260503023902 | 60 | 106 | 0.0 | 2.6 | 0.00 | 0.00 | 0.00 | 59 | 1018.4 |
| 20260503023359 | 60 | 172 | 0.0 | 2.6 | 0.00 | 0.00 | 0.00 | 59 | 1018.4 |
| 20260503022855 | 60 | 152 | 1.7 | 3.5 | 0.00 | 0.00 | 0.00 | 59 | 1018.3 |
| 20260503022350 | 61 | 150 | 1.7 | 2.6 | 0.00 | 0.00 | 0.00 | 58 | 1018.2 |
| 20260503021846 | 61 | 135 | 0.0 | 1.7 | 0.00 | 0.00 | 0.00 | 58 | 1018.5 |
| 20260503021343 | 61 | 163 | 1.7 | 3.5 | 0.00 | 0.00 | 0.00 | 57 | 1018.4 |
| 20260503020840 | 61 | 172 | 0.0 | 2.6 | 0.00 | 0.00 | 0.00 | 58 | 1018.4 |
| 20260503020338 | 61 | 160 | 0.0 | 1.7 | 0.00 | 0.00 | 0.00 | 59 | 1018.3 |
| 20260503015834 | 61 | 139 | 0.0 | 1.7 | 0.00 | 0.00 | 0.00 | 59 | 1018.2 |
| 20260503015331 | 61 | 168 | 0.0 | 0.9 | 0.00 | 0.00 | 0.00 | 58 | 1018.5 |
| 20260503014827 | 61 | 180 | 0.0 | 2.6 | 0.00 | 0.00 | 0.00 | 57 | 1018.2 |
| 20260503014325 | 62 | 166 | 1.7 | 2.6 | 0.00 | 0.00 | 0.00 | 56 | 1018.2 |
| 20260503013822 | 62 | 161 | 1.7 | 2.6 | 0.00 | 0.00 | 0.00 | 56 | 1018.0 |
| 20260503013319 | 62 | 150 | 1.7 | 1.7 | 0.00 | 0.00 | 0.00 | 56 | 1017.9 |
| 20260503012816 | 62 | 145 | 0.0 | 1.7 | 0.00 | 0.00 | 0.00 | 57 | 1017.9 |
| 20260503012314 | 62 | 140 | 1.7 | 1.7 | 0.00 | 0.00 | 0.00 | 56 | 1017.9 |
| 20260503011810 | 62 | 174 | 0.9 | 1.7 | 0.00 | 0.00 | 0.00 | 56 | 1017.8 |
| 20260503011307 | 63 | 160 | 0.9 | 1.7 | 0.00 | 0.00 | 0.00 | 54 | 1018.0 |
| 20260503010804 | 63 | 171 | 2.6 | 3.5 | 0.00 | 0.00 | 0.00 | 53 | 1017.7 |
| 20260503010301 | 64 | 111 | 0.0 | 2.6 | 0.00 | 0.00 | 0.00 | 52 | 1018.0 |
| 20260503005758 | 64 | 144 | 2.6 | 4.3 | 0.00 | 0.00 | 0.00 | 52 | 1017.9 |
| 20260503005255 | 64 | 106 | 0.9 | 2.6 | 0.00 | 0.00 | 0.00 | 51 | 1018.0 |
| 20260503004751 | 65 | 150 | 1.7 | 2.6 | 0.00 | 0.00 | 0.00 | 50 | 1017.9 |
| 20260503004249 | 65 | 144 | 1.7 | 4.3 | 0.00 | 0.00 | 0.00 | 50 | 1017.8 |
| 20260503003746 | 65 | 139 | 1.7 | 3.5 | 0.00 | 0.00 | 0.00 | 48 | 1017.6 |
| 20260503003243 | 66 | 163 | 5.2 | 6.1 | 0.00 | 0.00 | 0.00 | 46 | 1017.9 |
| 20260503002740 | 66 | 153 | 4.3 | 6.1 | 0.00 | 0.00 | 0.00 | 47 | 1017.7 |
| 20260503002237 | 66 | 161 | 6.1 | 7.8 | 0.00 | 0.00 | 0.00 | 47 | 1017.6 |
| 20260503001733 | 66 | 116 | 0.0 | 6.1 | 0.00 | 0.00 | 0.00 | 47 | 1017.7 |
| 20260503001229 | 66 | 188 | 2.6 | 5.2 | 0.00 | 0.00 | 0.00 | 47 | 1017.7 |
| 20260503000728 | 66 | 176 | 1.7 | 5.2 | 0.00 | 0.00 | 0.00 | 47 | 1017.7 |
| 20260503000226 | 66 | 163 | 2.6 | 5.2 | 0.00 | 0.00 | 0.00 | 49 | 1017.8 |
| 20260502235721 | 66 | 190 | 4.3 | 6.1 | 0.00 | 0.00 | 0.00 | 47 | 1017.7 |
| 20260502235220 | 66 | 215 | 2.6 | 7.8 | 0.00 | 0.00 | 0.00 | 46 | 1017.7 |
| 20260502234715 | 67 | 180 | 4.3 | 7.8 | 0.00 | 0.00 | 0.00 | 46 | 1017.8 |
| 20260502234213 | 67 | 128 | 1.7 | 2.6 | 0.00 | 0.00 | 0.00 | 45 | 1017.8 |
| 20260502233708 | 67 | 180 | 3.5 | 7.8 | 0.00 | 0.00 | 0.00 | 46 | 1017.7 |
| 20260502233205 | 67 | 160 | 2.6 | 4.3 | 0.00 | 0.00 | 0.00 | 46 | 1017.7 |
| 20260502232701 | 66 | 159 | 7.0 | 11.3 | 0.00 | 0.00 | 0.00 | 46 | 1017.9 |
| 20260502232159 | 68 | 157 | 7.8 | 11.3 | 0.00 | 0.00 | 0.00 | 45 | 1017.7 |
| 20260502231655 | 68 | 99 | 0.0 | 6.1 | 0.00 | 0.00 | 0.00 | 46 | 1017.8 |
| 20260502231153 | 68 | 195 | 1.7 | 3.5 | 0.00 | 0.00 | 0.00 | 45 | 1017.8 |
| 20260502230652 | 68 | 147 | 2.6 | 7.0 | 0.00 | 0.00 | 0.00 | 45 | 1017.8 |
| 20260502230150 | 68 | 57 | 0.0 | 7.8 | 0.00 | 0.00 | 0.00 | 45 | 1017.6 |
| 20260502225645 | 68 | 158 | 4.3 | 6.1 | 0.00 | 0.00 | 0.00 | 45 | 1017.7 |
| 20260502225143 | 67 | 180 | 3.5 | 7.0 | 0.00 | 0.00 | 0.00 | 45 | 1017.6 |
| 20260502224638 | 68 | 143 | 2.6 | 7.0 | 0.00 | 0.00 | 0.00 | 45 | 1017.8 |
| 20260502224135 | 67 | 163 | 3.5 | 5.2 | 0.00 | 0.00 | 0.00 | 45 | 1017.6 |
| 20260502223633 | 67 | 169 | 6.1 | 7.8 | 0.00 | 0.00 | 0.00 | 45 | 1017.8 |
| 20260502223131 | 66 | 168 | 4.3 | 9.6 | 0.00 | 0.00 | 0.00 | 45 | 1017.7 |
| 20260502222628 | 67 | 173 | 6.1 | 7.0 | 0.00 | 0.00 | 0.00 | 45 | 1018.0 |
| 20260502222125 | 67 | 210 | 1.7 | 7.0 | 0.00 | 0.00 | 0.00 | 45 | 1017.9 |
| 20260502221620 | 67 | 150 | 1.7 | 6.1 | 0.00 | 0.00 | 0.00 | 45 | 1017.9 |
| 20260502221118 | 68 | 257 | 0.9 | 3.5 | 0.00 | 0.00 | 0.00 | 46 | 1017.9 |
| 20260502220614 | 66 | 229 | 7.0 | 7.0 | 0.00 | 0.00 | 0.00 | 46 | 1018.0 |
| 20260502220110 | 68 | 75 | 2.6 | 5.2 | 0.00 | 0.00 | 0.00 | 43 | 1018.1 |
| 20260502215608 | 66 | 173 | 4.3 | 6.1 | 0.00 | 0.00 | 0.00 | 44 | 1018.2 |
| 20260502215104 | 67 | 183 | 4.3 | 5.2 | 0.00 | 0.00 | 0.00 | 45 | 1018.3 |
| 20260502214601 | 66 | 230 | 3.5 | 6.1 | 0.00 | 0.00 | 0.00 | 43 | 1018.5 |
| 20260502214059 | 66 | 114 | 4.3 | 9.6 | 0.00 | 0.00 | 0.00 | 45 | 1018.5 |
| 20260502213555 | 67 | 109 | 2.6 | 5.2 | 0.00 | 0.00 | 0.00 | 44 | 1018.5 |
| 20260502213053 | 64 | 277 | 4.3 | 6.1 | 0.00 | 0.00 | 0.00 | 46 | 1018.8 |
| 20260502212552 | 66 | 196 | 5.2 | 5.2 | 0.00 | 0.00 | 0.00 | 45 | 1019.0 |
| 20260502212049 | 64 | 97 | 0.9 | 6.1 | 0.00 | 0.00 | 0.00 | 47 | 1019.1 |
| 20260502211544 | 66 | 151 | 5.2 | 8.7 | 0.00 | 0.00 | 0.00 | 47 | 1019.2 |
| 20260502211042 | 65 | 172 | 1.7 | 7.8 | 0.00 | 0.00 | 0.00 | 47 | 1019.4 |
| 20260502210539 | 64 | 236 | 4.3 | 6.1 | 0.00 | 0.00 | 0.00 | 48 | 1019.4 |
| 20260502210036 | 65 | 160 | 4.3 | 7.8 | 0.00 | 0.00 | 0.00 | 49 | 1019.4 |
| 20260502205532 | 65 | 165 | 1.7 | 7.0 | 0.00 | 0.00 | 0.00 | 47 | 1019.5 |
| 20260502205030 | 65 | 157 | 0.0 | 3.5 | 0.00 | 0.00 | 0.00 | 48 | 1019.5 |
| 20260502204526 | 64 | 150 | 3.5 | 4.3 | 0.00 | 0.00 | 0.00 | 47 | 1019.7 |
| 20260502204025 | 63 | 160 | 2.6 | 6.1 | 0.00 | 0.00 | 0.00 | 47 | 1020.0 |
| 20260502203521 | 64 | 163 | 5.2 | 6.1 | 0.00 | 0.00 | 0.00 | 49 | 1020.0 |
| 20260502203018 | 65 | 166 | 7.0 | 8.7 | 0.00 | 0.00 | 0.00 | 47 | 1020.0 |
| 20260502202514 | 65 | 180 | 0.0 | 4.3 | 0.00 | 0.00 | 0.00 | 47 | 1019.8 |
| 20260502202013 | 64 | 199 | 3.5 | 6.1 | 0.00 | 0.00 | 0.00 | 48 | 1019.7 |
| 20260502201508 | 64 | 149 | 5.2 | 7.8 | 0.00 | 0.00 | 0.00 | 48 | 1020.1 |
| 20260502201004 | 64 | 199 | 1.7 | 3.5 | 0.00 | 0.00 | 0.00 | 48 | 1020.1 |
| 20260502200500 | 65 | 190 | 2.6 | 10.4 | 0.00 | 0.00 | 0.00 | 46 | 1020.2 |